Location: Bishop's University Astronomical Observatory
(45.3661°N, 71.8475°W)
Time: 21:22:37
(UTC-04:00)

CZ-4C R/B - Visible Passes

Search period start: 24 May 2015 00:00
Search period end: 03 June 2015 00:00
Orbit: 770 x 1232 km, 63.4° (Epoch: 22 May)

Date Brightness Start Highest point End Pass type
(mag) Time Alt. Az. Time Alt. Az. Time Alt. Az.
24 May 4.8 00:47:46 10° NNW 00:53:01 24° NNE 00:58:47 10° E visible
24 May 3.1 02:35:58 10° NW 02:42:50 69° NE 02:50:23 10° SE visible
24 May 3.5 04:25:03 10° NW 04:31:13 31° WSW 04:37:37 10° S visible
24 May 5.2 21:41:34 10° WNW 21:45:35 18° NNW 21:49:49 10° NNE visible
24 May 5.2 23:32:42 10° NNW 23:36:47 17° NNE 23:41:13 10° NE visible
25 May 4.2 01:21:14 10° NNW 01:27:23 36° NE 01:34:10 10° ESE visible
25 May 2.8 03:09:34 10° NW 03:16:31 69° WSW 03:24:05 10° SSE visible
25 May 5.2 22:16:44 10° NW 22:20:21 15° N 22:24:10 10° NNE visible
26 May 4.9 00:06:28 10° NNW 00:11:28 22° NNE 00:16:57 10° ENE visible
26 May 3.3 01:54:40 10° NNW 02:01:27 60° NE 02:08:54 10° SE visible
26 May 3.3 03:43:33 10° NW 03:49:58 37° WSW 03:56:45 10° S visible
26 May 5.1 20:59:49 10° WNW 21:04:00 19° NNW 21:08:25 10° NNE visible
26 May 5.2 22:51:16 10° NNW 22:55:10 16° N 22:59:22 10° NE visible
27 May 4.3 00:39:57 10° NNW 00:45:54 33° NE 00:52:27 10° E visible
27 May 2.7 02:28:14 10° NW 02:35:12 80° SW 02:42:49 10° SSE visible
27 May 4.1 04:18:23 10° WNW 04:23:12 18° WSW 04:27:53 10° SSW visible
27 May 5.2 21:35:04 10° NW 21:38:44 16° N 21:42:35 10° NNE visible
27 May 4.9 23:25:08 10° NNW 23:29:53 21° NNE 23:35:05 10° ENE visible
28 May 3.5 01:13:23 10° NNW 01:20:02 52° NE 01:27:22 10° ESE visible
28 May 3.2 03:02:05 10° NW 03:08:42 44° WSW 03:15:47 10° S visible
28 May 5.1 22:09:47 10° NNW 22:13:33 16° N 22:17:34 10° NE visible
28 May 4.4 23:58:40 10° NNW 00:04:23 29° NNE 00:10:41 10° E visible
29 May 2.8 01:46:54 10° NW 01:53:53 89° ENE 02:01:25 10° SE visible
29 May 3.9 03:36:35 10° WNW 03:42:00 22° WSW 03:46:26 13° SSW visible
29 May 5.1 20:53:21 10° NW 20:57:07 16° N 21:01:03 10° NNE visible
29 May 4.9 22:43:48 10° NNW 22:48:18 19° NNE 22:53:13 10° ENE visible
30 May 3.7 00:32:06 10° NNW 00:38:37 46° NE 00:45:47 10° ESE visible
30 May 3.0 02:20:39 10° NW 02:27:26 51° WSW 02:32:07 23° S visible
30 May 5.1 21:28:15 10° NNW 21:31:55 16° N 21:35:49 10° NE visible
30 May 4.5 23:17:23 10° NNW 23:22:52 27° NNE 23:28:54 10° E visible
31 May 2.9 01:05:36 10° NW 01:12:31 78° NE 01:18:12 19° SE visible
31 May 3.8 02:54:56 10° WNW 03:00:47 27° WSW 03:03:18 22° SW visible
31 May 5.0 22:02:25 10° NNW 22:06:42 18° NNE 22:11:20 10° ENE visible
31 May 3.8 23:50:50 10° NNW 23:57:10 41° NE 00:04:09 10° ESE visible
01 Jun 2.9 01:39:15 10° NW 01:46:09 60° WSW 01:49:42 32° S visible
01 Jun 4.5 03:30:59 10° W 03:33:53 12° WSW 03:34:49 12° WSW visible
01 Jun 4.6 22:36:05 10° NNW 22:41:19 24° NNE 22:47:04 10° E visible
02 Jun 3.0 00:24:17 10° NW 00:31:09 68° NE 00:36:17 22° SE visible
02 Jun 3.6 02:13:21 10° NW 02:19:33 32° WSW 02:21:25 28° SW visible
02 Jun 5.0 21:21:01 10° NNW 21:25:05 17° NNE 21:29:29 10° NE visible
02 Jun 4.0 23:09:33 10° NNW 23:15:42 36° NE 23:22:28 10° ESE visible
